1997,10,1,0,5,-12.61,.86,-4.54,.01,21.86,96.30,13.45
1997,10,1,0,10,-13.16,1.49,-4.67,.02,22.03,95.50,13.45
1997,10,1,0,15,-13.45,1.60,-4.76,.03,22.17,94.80,13.45
1997,10,1,0,20,-12.92,1.34,-4.69,.02,21.98,92.30,13.45
1997,10,1,0,25,-12.65,1.49,-4.64,.03,21.98,94.60,13.46
1997,10,1,0,30,-13.98,1.50,-5.15,.02,22.02,94.10,13.46
1997,10,1,0,35,-15.04,1.49,-5.40,.03,21.94,94.80,13.46
1997,10,1,0,40,-14.23,1.52,-5.05,.05,21.98,95.50,13.46
1997,10,1,0,45,-13.02,1.52,-4.71,.05,22.03,95.60,13.46
1997,10,1,0,50,-12.88,1.44,-4.73,.08,22.08,95.50,13.46
1997,10,1,0,55,-13.77,1.16,-5.00,.04,22.09,95.40,13.46
1997,10,1,1,0,-13.80,1.47,-4.93,.07,22.18,95.50,13.46
1997,10,1,1,5,-13.95,1.39,-5.09,.07,22.26,95.00,13.46
1997,10,1,1,10,-14.07,.85,-5.25,.05,22.18,94.80,13.46
1997,10,1,1,15,-13.52,.65,-5.16,.05,22.05,95.30,13.46
1997,10,1,1,20,-12.81,.86,-4.92,.03,22.03,95.70,13.46
1997,10,1,1,25,-13.42,.86,-5.17,.05,21.99,95.50,13.46
1997,10,1,1,30,-14.11,1.16,-5.32,.06,21.88,95.70,13.46
1997,10,1,1,35,-13.99,1.53,-5.06,.04,21.90,96.10,13.46
1997,10,1,1,40,-13.36,1.48,-4.98,.06,21.89,96.00,13.47
1997,10,1,1,45,-13.49,1.31,-4.96,.04,21.80,96.10,13.47
1997,10,1,1,50,-12.22,1.06,-4.72,.05,21.70,96.20,13.47
1997,10,1,1,55,-11.41,1.50,-4.44,.06,21.78,96.60,13.47
1997,10,1,2,0,-11.38,1.52,-4.57,.08,21.86,96.50,13.47
1997,10,1,2,5,-11.79,1.37,-4.88,.09,21.71,96.10,13.47
1997,10,1,2,10,-12.27,1.35,-4.87,.09,21.70,96.60,13.47
1997,10,1,2,15,-13.28,1.49,-4.96,.08,21.76,96.70,13.47
1997,10,1,2,20,-12.46,1.67,-4.65,.10,21.79,96.30,13.46
1997,10,1,2,25,-12.56,1.59,-4.71,.06,21.55,95.90,13.47
1997,10,1,2,30,-12.60,1.56,-4.65,.11,21.57,96.90,13.47
1997,10,1,2,35,-12.27,1.25,-4.75,.11,21.52,96.40,13.47
1997,10,1,2,40,-13.07,.93,-4.93,.15,21.33,96.90,13.47
1997,10,1,2,45,-13.48,.79,-4.99,.07,21.30,97.50,13.47
1997,10,1,2,50,-14.01,.30,-5.08,.16,21.23,98.30,13.47
1997,10,1,2,55,-13.08,.58,-4.64,.09,21.28,98.90,13.48
1997,10,1,3,0,-11.79,.61,-4.59,.13,21.33,99.00,13.48
1997,10,1,3,5,-11.93,.13,-4.77,.18,21.21,98.40,13.48
1997,10,1,3,10,-12.42,-.36,-4.93,.13,20.97,98.20,13.48
1997,10,1,3,15,-12.56,-.02,-4.99,.16,20.95,98.70,13.48
1997,10,1,3,20,-13.63,.77,-5.14,.18,21.12,99.20,13.48
1997,10,1,3,25,-15.10,.74,-5.78,.20,21.13,98.80,13.48
1997,10,1,3,30,-14.20,.98,-5.27,.23,21.18,98.90,13.48
1997,10,1,3,35,-13.18,1.31,-4.91,.14,21.15,98.60,13.49
1997,10,1,3,40,-12.57,.83,-4.92,.21,21.06,98.20,13.49
1997,10,1,3,45,-12.67,.38,-5.18,.23,20.89,98.40,13.49
1997,10,1,3,50,-12.93,.93,-4.88,.20,21.06,99.40,13.49
1997,10,1,3,55,-13.08,1.50,-4.73,.23,21.38,99.50,13.49
1997,10,1,4,0,-12.50,.80,-4.95,.23,21.11,98.00,13.49
1997,10,1,4,5,-12.05,.49,-5.01,.23,20.92,98.30,13.49
1997,10,1,4,10,-12.17,.74,-4.83,.28,20.88,98.40,13.49
1997,10,1,4,15,-12.08,.24,-4.95,.25,20.77,98.00,13.49
1997,10,1,4,20,-11.92,-.45,-4.92,.31,20.65,98.40,13.49
1997,10,1,4,25,-12.64,-.71,-5.16,.22,20.55,98.60,13.50
1997,10,1,4,30,-13.34,-.12,-5.16,.26,20.39,99.00,13.50
1997,10,1,4,35,-12.96,.41,-4.95,.32,20.39,99.40,13.50
1997,10,1,4,40,-12.20,.72,-4.86,.31,20.46,99.70,13.50
1997,10,1,4,45,-12.66,.06,-5.13,.29,20.30,99.10,13.50
1997,10,1,4,50,-12.65,-.63,-5.16,.30,20.03,99.30,13.50
1997,10,1,4,55,-12.94,.01,-4.86,.24,20.15,100.10,13.50
1997,10,1,5,0,-12.74,.51,-4.77,.33,20.09,100.20,13.50
1997,10,1,5,5,-12.08,1.04,-4.70,.37,20.27,101.00,13.51
1997,10,1,5,10,-12.10,.98,-4.72,.34,20.35,100.80,13.51
1997,10,1,5,15,-12.13,.61,-4.79,.35,20.26,100.50,13.51
1997,10,1,5,20,-11.99,.12,-4.88,.37,20.11,100.40,13.49
1997,10,1,5,25,-12.47,.05,-5.11,.34,19.92,100.10,13.50
1997,10,1,5,30,-12.45,.19,-5.09,.34,19.82,100.20,13.51
1997,10,1,5,35,-12.02,.69,-4.83,.35,19.81,100.40,13.51
1997,10,1,5,40,-11.62,.59,-4.68,.37,19.78,100.10,13.51
1997,10,1,5,45,-11.49,.79,-4.65,.38,19.75,100.40,13.51
1997,10,1,5,50,-11.42,1.12,-4.61,.43,19.88,100.70,13.52
1997,10,1,5,55,-11.42,1.40,-4.51,.42,19.92,100.70,13.52
1997,10,1,6,0,-11.21,.88,-4.33,.54,19.91,100.50,13.52
1997,10,1,6,5,-10.67,.99,-3.74,1.13,19.91,100.60,13.52
1997,10,1,6,10,-9.61,1.68,-2.13,2.58,19.96,100.90,13.52
1997,10,1,6,15,-7.93,1.79,-.23,4.43,19.89,100.70,13.52
1997,10,1,6,20,-3.87,2.41,3.28,8.06,20.00,101.20,13.52
1997,10,1,6,25,1.79,7.40,7.75,13.33,20.03,101.10,13.52
1997,10,1,6,30,9.49,66.79,13.26,22.07,19.99,100.80,13.52
1997,10,1,6,35,19.47,119.20,19.12,33.29,20.09,101.20,13.52
1997,10,1,6,40,30.69,167.00,25.05,46.76,20.51,101.80,13.52
1997,10,1,6,45,40.89,182.70,31.26,58.46,20.86,101.50,13.52
1997,10,1,6,50,59.97,233.30,41.83,81.40,21.05,100.90,13.51
1997,10,1,6,55,87.60,299.60,55.62,113.30,21.42,100.40,13.51
1997,10,1,7,0,106.30,334.10,64.22,134.70,21.70,99.60,13.50
1997,10,1,7,5,124.30,369.00,70.10,151.80,22.19,99.20,13.50
1997,10,1,7,10,138.80,379.70,75.90,162.80,22.68,97.70,13.48
1997,10,1,7,15,159.10,425.70,80.60,180.20,23.35,96.10,13.47
1997,10,1,7,20,177.60,450.60,85.40,194.20,23.90,91.80,13.46
1997,10,1,7,25,158.20,343.00,86.30,169.40,24.27,89.40,13.45
1997,10,1,7,30,98.70,96.50,87.20,104.70,24.49,88.20,13.45
1997,10,1,7,35,106.60,87.00,94.70,112.60,24.52,89.00,13.44
1997,10,1,7,40,111.20,101.20,93.70,116.80,24.50,88.50,13.44
1997,10,1,7,45,110.90,94.50,92.90,114.70,24.59,89.20,13.44
1997,10,1,7,50,139.00,161.00,96.00,142.10,24.66,88.80,13.43
1997,10,1,7,55,278.50,505.60,110.40,283.30,25.11,87.80,13.43
1997,10,1,8,0,306.00,543.20,115.60,309.00,25.96,82.60,13.42
1997,10,1,8,5,322.80,563.20,117.20,325.80,26.45,79.90,13.41
1997,10,1,8,10,339.40,592.10,113.60,342.30,26.90,78.60,13.40
1997,10,1,8,15,348.30,603.80,109.80,352.90,27.26,77.00,13.39
1997,10,1,8,20,359.00,606.40,110.60,364.50,27.62,74.70,13.37
1997,10,1,8,25,377.40,620.70,113.10,383.70,27.97,72.70,13.36
1997,10,1,8,30,396.90,626.40,119.60,403.90,28.09,71.30,13.35
1997,10,1,8,35,393.00,587.90,123.60,399.70,28.19,71.40,13.34
1997,10,1,8,40,422.70,619.70,129.40,429.70,28.35,71.40,13.33
1997,10,1,8,45,457.90,660.40,133.20,464.40,28.68,70.00,13.32
1997,10,1,8,50,448.50,617.60,137.10,454.00,28.98,67.98,13.31
1997,10,1,8,55,492.60,672.00,139.80,498.80,29.00,66.38,13.30
1997,10,1,9,0,502.00,650.60,151.20,508.30,28.82,66.58,13.29
1997,10,1,9,5,499.30,610.40,161.90,504.60,28.84,67.91,13.28
1997,10,1,9,10,488.10,580.30,160.60,492.20,28.94,67.40,13.27
1997,10,1,9,15,564.90,703.00,155.40,567.80,29.04,67.75,13.26
1997,10,1,9,20,574.40,713.00,149.60,577.60,29.45,66.14,13.25
1997,10,1,9,25,595.30,722.00,158.10,596.40,29.91,64.77,13.25
1997,10,1,9,30,627.80,720.00,181.20,627.70,30.35,63.37,13.24
1997,10,1,9,35,655.60,715.00,201.70,660.00,30.01,63.90,13.23
1997,10,1,9,40,676.40,713.00,212.60,683.70,29.41,66.16,13.22
1997,10,1,9,45,293.60,154.80,202.70,290.40,29.54,64.85,13.22
1997,10,1,9,50,607.50,606.50,198.60,609.50,29.56,63.98,13.22
1997,10,1,9,55,692.50,744.00,183.00,691.40,29.89,63.24,13.21
1997,10,1,10,0,684.50,754.00,162.50,680.90,30.19,64.11,13.21
1997,10,1,10,5,690.50,766.00,152.30,687.40,30.55,60.33,13.20
1997,10,1,10,10,703.00,775.00,152.50,699.30,30.66,60.42,13.19
1997,10,1,10,15,697.00,775.00,139.30,689.10,31.00,60.42,13.19
1997,10,1,10,20,700.00,755.00,150.50,694.00,30.99,59.13,13.18
1997,10,1,10,25,714.00,782.00,136.10,707.00,30.82,62.15,13.18
1997,10,1,10,30,727.00,778.00,141.40,719.00,30.93,60.06,13.17
1997,10,1,10,35,728.00,762.00,143.40,720.00,31.08,58.06,13.17
1997,10,1,10,40,761.00,769.00,162.00,754.00,30.83,58.23,13.17
1997,10,1,10,45,715.00,684.40,176.50,706.00,30.67,60.01,13.16
1997,10,1,10,50,771.00,781.00,151.60,761.00,30.59,58.51,13.16
1997,10,1,10,55,768.00,773.00,152.50,757.00,30.71,58.56,13.16
1997,10,1,11,0,765.00,761.00,154.90,754.00,30.83,59.04,13.15
1997,10,1,11,5,465.20,364.00,179.30,456.70,30.53,59.60,13.15
1997,10,1,11,10,798.00,780.00,159.10,788.00,30.59,58.89,13.15
1997,10,1,11,15,803.00,773.00,170.10,790.00,31.05,58.72,13.15
1997,10,1,11,20,814.00,770.00,182.20,803.00,30.81,61.63,13.15
1997,10,1,11,25,818.00,780.00,173.00,804.00,31.02,58.60,13.15
1997,10,1,11,30,831.00,783.00,179.20,818.00,31.35,58.07,13.15
1997,10,1,11,35,641.20,508.50,224.70,629.70,31.65,57.86,13.14
1997,10,1,11,40,804.00,703.00,214.40,796.00,31.50,58.85,13.14
1997,10,1,11,45,843.00,735.00,225.80,833.00,31.34,61.97,13.14
1997,10,1,11,50,634.30,464.80,251.40,624.40,31.35,60.28,13.14
1997,10,1,11,55,719.00,604.50,210.70,714.00,30.87,62.01,13.14
1997,10,1,12,0,800.00,708.00,199.90,790.00,31.42,57.54,13.14
1997,10,1,12,5,793.00,707.00,194.10,783.00,31.57,56.18,13.14
1997,10,1,12,10,786.00,702.00,194.10,777.00,31.50,55.97,13.14
1997,10,1,12,15,789.00,696.90,201.40,780.00,31.34,57.48,13.14
1997,10,1,12,20,800.00,699.80,205.80,793.00,31.50,58.28,13.13
1997,10,1,12,25,790.00,699.30,197.30,783.00,31.81,57.00,13.13
1997,10,1,12,30,777.00,686.20,194.10,773.00,31.96,56.62,13.13
1997,10,1,12,35,786.00,699.30,197.40,781.00,32.00,58.76,13.13
1997,10,1,12,40,782.00,703.00,193.20,778.00,31.62,60.26,13.13
1997,10,1,12,45,765.00,685.40,192.70,762.00,31.49,58.98,13.13
1997,10,1,12,50,779.00,714.00,182.70,774.00,31.56,58.37,13.13
1997,10,1,12,55,765.00,696.80,185.70,761.00,31.74,57.45,13.13
1997,10,1,13,0,777.00,707.00,192.80,770.00,31.83,57.75,13.13
1997,10,1,13,5,772.00,673.10,220.20,768.00,31.74,60.01,13.13
1997,10,1,13,10,713.00,614.10,215.90,709.00,31.52,63.95,13.13
1997,10,1,13,15,709.00,643.30,187.10,707.00,31.18,65.94,13.13
1997,10,1,13,20,735.00,685.70,181.50,732.00,31.06,64.09,13.13
1997,10,1,13,25,744.00,692.80,188.20,738.00,31.15,62.04,13.13
1997,10,1,13,30,727.00,682.70,181.80,723.00,31.45,55.20,13.14
1997,10,1,13,35,727.00,696.30,176.30,722.00,32.17,49.17,13.14
1997,10,1,13,40,716.00,690.30,175.70,713.00,32.52,48.17,13.14
1997,10,1,13,45,715.00,697.60,174.60,713.00,32.52,46.76,13.14
1997,10,1,13,50,697.10,681.00,179.00,695.10,32.74,48.01,13.14
1997,10,1,13,55,682.30,665.70,183.10,682.30,32.93,47.70,13.14
1997,10,1,14,0,683.60,663.60,189.30,685.80,32.77,48.31,13.14
1997,10,1,14,5,695.60,661.10,209.60,698.40,32.96,47.82,13.14
1997,10,1,14,10,710.00,670.30,223.50,713.00,32.92,48.17,13.14
1997,10,1,14,15,643.60,624.70,196.60,645.00,32.87,47.10,13.14
1997,10,1,14,20,627.60,654.70,166.50,629.20,33.12,47.43,13.14
1997,10,1,14,25,624.60,688.20,144.70,627.50,32.91,47.51,13.14
1997,10,1,14,30,611.50,689.00,137.30,615.70,32.32,49.81,13.14
1997,10,1,14,35,598.50,685.70,136.20,602.70,32.33,50.77,13.14
1997,10,1,14,40,587.00,680.50,138.30,591.30,32.14,52.33,13.15
1997,10,1,14,45,567.10,659.60,140.30,572.10,32.05,55.30,13.15
1997,10,1,14,50,554.70,657.70,136.80,560.10,31.90,55.82,13.15
1997,10,1,14,55,542.50,662.50,128.50,548.60,31.58,59.30,13.15
1997,10,1,15,0,531.50,663.10,125.60,537.40,31.64,58.99,13.15
1997,10,1,15,5,518.50,661.30,122.00,524.80,31.47,58.49,13.16
1997,10,1,15,10,502.50,653.70,119.90,509.20,31.43,58.87,13.16
1997,10,1,15,15,493.00,655.40,118.50,500.10,31.40,57.90,13.16
1997,10,1,15,20,478.20,651.90,115.40,486.40,31.30,58.74,13.16
1997,10,1,15,25,461.70,648.60,111.70,470.30,31.45,57.21,13.16
1997,10,1,15,30,445.60,642.20,108.50,455.40,31.45,55.67,13.17
1997,10,1,15,35,426.20,627.40,106.70,437.40,31.36,56.33,13.17
1997,10,1,15,40,402.60,604.10,103.70,414.40,31.37,55.21,13.17
1997,10,1,15,45,367.40,559.90,99.20,379.70,31.29,54.92,13.17
1997,10,1,15,50,383.10,613.20,99.30,396.50,31.32,55.51,13.17
1997,10,1,15,55,362.90,592.90,98.90,376.80,31.32,55.57,13.17
1997,10,1,16,0,306.20,497.20,93.80,319.40,31.21,55.83,13.17
1997,10,1,16,5,324.80,560.10,92.60,339.30,31.02,57.00,13.17
1997,10,1,16,10,313.50,555.10,92.20,326.90,31.03,58.25,13.18
1997,10,1,16,15,292.00,529.60,88.60,304.60,30.95,60.32,13.18
1997,10,1,16,20,275.90,519.70,85.10,289.20,30.73,60.57,13.18
1997,10,1,16,25,255.90,504.70,81.80,271.20,30.63,60.36,13.18
1997,10,1,16,30,234.40,486.10,76.60,250.90,30.57,60.29,13.18
1997,10,1,16,35,221.80,488.30,72.60,239.30,30.56,59.94,13.18
1997,10,1,16,40,207.50,487.50,67.78,225.80,30.57,58.38,13.18
1997,10,1,16,45,192.10,478.50,63.24,211.30,30.57,58.89,13.18
1997,10,1,16,50,175.20,464.60,59.30,194.90,30.60,57.79,13.19
1997,10,1,16,55,159.30,451.00,55.99,179.60,30.66,57.69,13.19
1997,10,1,17,0,144.70,439.90,53.04,165.70,30.72,56.58,13.19
1997,10,1,17,5,128.20,416.90,50.04,150.10,30.72,55.89,13.19
1997,10,1,17,10,112.00,388.20,47.77,133.50,30.76,58.30,13.19
1997,10,1,17,15,94.80,352.70,43.70,116.80,30.67,58.89,13.19
1997,10,1,17,20,79.00,318.50,40.13,101.50,30.73,57.07,13.19
1997,10,1,17,25,65.23,287.60,36.13,87.80,30.84,56.80,13.19
1997,10,1,17,30,51.11,251.80,31.80,72.60,30.85,54.33,13.19
1997,10,1,17,35,36.94,210.90,26.96,57.28,30.84,54.00,13.19
1997,10,1,17,40,25.28,172.20,22.01,43.96,30.72,57.97,13.20
1997,10,1,17,45,12.48,131.90,16.02,32.84,29.77,65.74,13.20
1997,10,1,17,50,3.38,89.60,11.38,23.49,28.95,64.83,13.20
1997,10,1,17,55,-2.65,47.97,6.91,15.85,29.03,62.02,13.21
1997,10,1,18,0,-8.50,5.43,2.75,9.96,29.11,62.85,13.21
1997,10,1,18,5,-14.26,-2.00,-1.57,5.96,28.52,66.24,13.22
1997,10,1,18,10,-14.92,-2.58,-3.81,3.38,27.99,69.33,13.22
1997,10,1,18,15,-15.50,-2.96,-5.45,1.77,27.58,70.80,13.23
1997,10,1,18,20,-16.52,-3.36,-6.43,.89,27.23,73.90,13.24
1997,10,1,18,25,-17.05,-4.25,-6.79,.42,26.79,75.00,13.24
1997,10,1,18,30,-17.44,-3.81,-6.73,.07,26.31,77.50,13.25
1997,10,1,18,35,-17.00,-3.19,-6.44,.01,26.11,75.70,13.26
1997,10,1,18,40,-17.36,-2.88,-6.49,.02,26.00,75.70,13.26
1997,10,1,18,45,-18.07,-3.63,-6.73,.03,25.65,77.10,13.27
1997,10,1,18,50,-16.99,-3.12,-6.25,.04,25.45,78.10,13.28
1997,10,1,18,55,-15.16,-2.59,-5.97,.10,25.52,78.00,13.28
1997,10,1,19,0,-15.04,-2.26,-5.95,.16,25.53,77.50,13.29
1997,10,1,19,5,-14.97,-2.23,-5.87,.17,25.61,78.50,13.29
1997,10,1,19,10,-15.97,-2.35,-6.23,.25,25.30,80.00,13.29
1997,10,1,19,15,-15.12,-2.50,-6.05,.31,25.11,80.90,13.30
1997,10,1,19,20,-15.41,-2.58,-6.01,.35,24.90,81.40,13.30
1997,10,1,19,25,-15.67,-3.15,-5.92,.37,24.85,81.80,13.31
1997,10,1,19,30,-15.44,-3.27,-5.86,.36,24.82,82.70,13.31
1997,10,1,19,35,-14.67,-2.13,-5.69,.37,24.74,84.10,13.32
1997,10,1,19,40,-15.35,-2.54,-5.76,.34,24.64,84.80,13.32
1997,10,1,19,45,-16.44,-3.24,-6.11,.34,24.23,87.30,13.33
1997,10,1,19,50,-15.08,-1.74,-5.30,.35,24.31,86.60,13.33
1997,10,1,19,55,-14.25,-.75,-5.17,.33,24.51,85.70,13.33
1997,10,1,20,0,-13.45,-.48,-5.23,.29,24.59,85.90,13.34
1997,10,1,20,5,-13.40,-.88,-5.34,.23,24.50,85.60,13.34
1997,10,1,20,10,-13.57,.20,-5.00,.18,24.53,85.80,13.34
1997,10,1,20,15,-13.31,.61,-5.01,.24,24.62,84.80,13.34
1997,10,1,20,20,-13.15,.42,-5.00,.20,24.64,84.90,13.35
1997,10,1,20,25,-13.05,-.13,-5.20,.17,24.52,86.00,13.35
1997,10,1,20,30,-13.87,-1.26,-5.31,.15,24.17,87.20,13.35
1997,10,1,20,35,-15.63,-2.50,-5.71,.11,23.65,90.20,13.36
1997,10,1,20,40,-14.25,-1.70,-5.19,.15,23.44,91.50,13.36
1997,10,1,20,45,-14.56,-.70,-5.04,.09,23.69,89.70,13.36
1997,10,1,20,50,-14.44,.92,-4.84,.09,24.33,85.40,13.37
1997,10,1,20,55,-13.95,1.38,-4.84,.09,24.70,85.50,13.37
1997,10,1,21,0,-14.36,1.45,-5.00,.07,24.89,87.40,13.37
1997,10,1,21,5,-14.55,1.52,-5.07,.04,24.96,87.00,13.37
1997,10,1,21,10,-14.77,1.45,-5.18,.05,24.97,88.00,13.37
1997,10,1,21,15,-14.37,1.46,-5.10,.04,25.03,87.70,13.37
1997,10,1,21,20,-13.73,1.44,-5.09,.04,24.97,88.00,13.37
1997,10,1,21,25,-14.13,1.43,-5.40,.05,24.89,88.40,13.37
1997,10,1,21,30,-14.85,1.44,-5.67,.08,24.84,87.80,13.37
1997,10,1,21,35,-15.58,1.53,-5.88,.07,24.76,87.50,13.38
1997,10,1,21,40,-16.00,1.49,-6.02,.04,24.61,87.70,13.38
1997,10,1,21,45,-15.30,1.65,-5.65,.04,24.56,88.60,13.38
1997,10,1,21,50,-14.54,1.69,-5.42,.02,24.65,88.10,13.38
1997,10,1,21,55,-13.68,1.65,-5.15,.03,24.69,88.20,13.38
1997,10,1,22,0,-13.53,1.53,-5.15,.04,24.76,88.50,13.38
1997,10,1,22,5,-14.32,1.55,-5.34,.03,24.74,89.20,13.39
1997,10,1,22,10,-14.19,1.62,-5.33,.02,24.75,90.00,13.39
1997,10,1,22,15,-14.41,1.55,-5.36,.02,24.72,90.40,13.39
1997,10,1,22,20,-14.87,1.52,-5.53,.01,24.64,90.40,13.39
1997,10,1,22,25,-14.77,1.48,-5.45,.03,24.56,91.50,13.39
1997,10,1,22,30,-14.44,1.48,-5.32,.03,24.50,91.70,13.39
1997,10,1,22,35,-13.05,1.43,-4.95,.04,24.42,91.70,13.39
1997,10,1,22,40,-13.26,.73,-4.87,.03,24.33,92.70,13.39
1997,10,1,22,45,-14.31,.07,-5.03,.04,24.24,94.40,13.39
1997,10,1,22,50,-14.06,.54,-5.17,.05,24.16,94.40,13.39
1997,10,1,22,55,-13.59,1.08,-5.01,.03,24.18,94.40,13.40
1997,10,1,23,0,-13.79,.76,-5.37,.02,23.98,93.20,13.40
1997,10,1,23,5,-14.63,1.27,-5.45,.02,23.84,94.10,13.40
1997,10,1,23,10,-13.91,1.45,-5.25,.03,23.73,94.50,13.40
1997,10,1,23,15,-13.48,1.23,-4.92,.02,23.77,95.60,13.40
1997,10,1,23,20,-13.85,.69,-4.90,.02,23.77,96.00,13.40
1997,10,1,23,25,-14.21,.87,-5.04,.02,23.83,96.90,13.40
1997,10,1,23,30,-14.04,1.46,-4.83,.02,24.00,97.00,13.41
1997,10,1,23,35,-13.89,1.57,-4.80,.01,24.10,96.90,13.41
1997,10,1,23,40,-14.11,1.70,-4.94,.01,24.18,96.60,13.41
1997,10,1,23,45,-14.23,1.70,-5.06,.00,24.23,96.40,13.41
1997,10,1,23,50,-13.32,1.96,-4.79,.01,24.23,96.10,13.41
1997,10,1,23,55,-13.00,2.30,-4.72,.00,24.26,96.00,13.41
1997,10,2,0,0,-13.08,2.11,-4.81,.00,24.27,95.30,13.41
1997,10,2,0,5,-13.11,.91,-5.08,.00,23.94,94.10,13.41
1997,10,2,0,10,-13.57,1.05,-5.00,.01,23.79,95.10,13.41
1997,10,2,0,15,-13.05,.74,-4.99,.00,23.62,94.60,13.41
1997,10,2,0,20,-12.84,.41,-5.07,.01,23.46,95.40,13.41
1997,10,2,0,25,-12.64,.38,-4.86,.01,23.43,96.00,13.41
1997,10,2,0,30,-12.88,-.09,-4.80,.01,23.31,96.20,13.41
1997,10,2,0,35,-13.79,-.89,-5.05,.00,23.08,96.50,13.42
1997,10,2,0,40,-13.49,-.89,-4.85,.00,23.00,97.80,13.42
1997,10,2,0,45,-12.98,.22,-4.76,.00,23.03,98.40,13.42
1997,10,2,0,50,-14.19,1.06,-4.82,.00,23.09,99.00,13.42
1997,10,2,0,55,-14.42,1.52,-4.67,.01,23.22,99.40,13.42
1997,10,2,1,0,-12.70,1.52,-4.32,.01,23.16,98.70,13.42
1997,10,2,1,5,-13.18,1.40,-4.60,.01,22.89,98.20,13.42
1997,10,2,1,10,-14.79,.24,-5.08,.00,22.55,98.60,13.42
1997,10,2,1,15,-14.53,.05,-4.85,0.00,22.67,99.90,13.43
1997,10,2,1,20,-13.71,.73,-4.62,.00,22.87,100.30,13.43
1997,10,2,1,25,-13.95,1.00,-4.68,.00,22.87,99.70,13.43
1997,10,2,1,30,-13.94,.73,-4.79,0.00,22.67,99.80,13.43
1997,10,2,1,35,-13.42,.89,-4.70,.00,22.71,100.20,13.43
1997,10,2,1,40,-13.46,1.42,-4.68,.00,22.91,100.60,13.43
1997,10,2,1,45,-12.98,.84,-4.86,.00,22.77,99.90,13.43
1997,10,2,1,50,-12.70,.66,-4.80,.00,22.62,99.60,13.43
1997,10,2,1,55,-12.94,-.19,-4.99,.00,22.44,99.50,13.44
1997,10,2,2,0,-13.46,.21,-5.08,.00,22.37,99.90,13.44
1997,10,2,2,5,-13.94,.85,-4.86,.01,22.62,100.80,13.44
1997,10,2,2,10,-14.56,1.35,-4.93,.00,22.78,100.80,13.44
1997,10,2,2,15,-14.49,1.55,-4.92,.00,22.87,100.80,13.44
1997,10,2,2,20,-14.25,1.76,-4.88,.00,22.97,100.70,13.42
1997,10,2,2,25,-14.34,1.81,-5.02,.01,23.03,100.50,13.43
1997,10,2,2,30,-13.89,1.79,-4.90,.00,23.07,100.20,13.44
1997,10,2,2,35,-13.30,.99,-5.04,.01,22.83,99.30,13.44
1997,10,2,2,40,-13.73,-.43,-5.22,.01,22.65,99.70,13.44
1997,10,2,2,45,-13.78,-.34,-5.19,.01,22.70,100.30,13.44
1997,10,2,2,50,-13.09,.14,-5.18,.01,22.64,100.10,13.44
1997,10,2,2,55,-13.36,.18,-5.31,.01,22.48,99.90,13.45
1997,10,2,3,0,-14.08,.03,-5.38,.00,22.40,100.10,13.45
1997,10,2,3,5,-14.38,-.12,-5.44,.01,22.30,100.20,13.45
1997,10,2,3,10,-14.67,.56,-5.32,.01,22.26,100.50,13.45
1997,10,2,3,15,-13.10,.83,-4.84,.00,22.17,100.30,13.45
1997,10,2,3,20,-14.34,.55,-5.39,.01,21.82,99.90,13.45
1997,10,2,3,25,-13.76,-.30,-5.17,.02,21.70,100.10,13.45
1997,10,2,3,30,-12.98,-.77,-5.04,.01,21.42,100.30,13.45
1997,10,2,3,35,-13.37,-.97,-4.86,.01,21.58,101.10,13.46
1997,10,2,3,40,-13.18,-.63,-4.92,.02,21.43,100.90,13.46
1997,10,2,3,45,-12.95,.82,-4.48,.05,21.85,102.50,13.46
1997,10,2,3,50,-13.20,1.80,-4.41,.06,22.36,102.80,13.46
1997,10,2,3,55,-13.25,2.61,-4.46,.06,22.66,102.70,13.46
1997,10,2,4,0,-12.92,2.94,-4.42,.06,22.79,102.40,13.46
1997,10,2,4,5,-13.15,2.50,-4.79,.08,22.61,101.30,13.46
1997,10,2,4,10,-13.93,1.53,-5.23,.07,22.27,101.10,13.46
1997,10,2,4,15,-13.99,1.44,-5.25,.03,22.27,101.40,13.46
1997,10,2,4,20,-14.12,1.49,-5.31,.04,22.25,101.10,13.46
1997,10,2,4,25,-14.19,1.48,-5.34,.04,22.18,100.40,13.46
1997,10,2,4,30,-14.53,1.15,-5.52,.04,22.08,99.40,13.46
1997,10,2,4,35,-14.55,.85,-5.57,.06,22.07,97.90,13.46
1997,10,2,4,40,-14.97,.72,-5.73,.04,22.18,94.90,13.46
1997,10,2,4,45,-14.89,.56,-5.93,.02,22.26,92.10,13.46
1997,10,2,4,50,-14.68,.53,-5.98,.06,22.30,90.40,13.46
1997,10,2,4,55,-14.73,.27,-5.85,.07,22.21,90.50,13.47
1997,10,2,5,0,-14.27,.23,-5.53,.10,22.16,90.90,13.47
1997,10,2,5,5,-14.09,.62,-5.51,.12,22.25,89.20,13.47
1997,10,2,5,10,-14.74,.11,-5.75,.12,22.14,88.30,13.47
1997,10,2,5,15,-14.76,-.23,-5.67,.10,22.01,88.60,13.47
1997,10,2,5,20,-14.49,-.29,-5.57,.07,21.92,88.60,13.45
1997,10,2,5,25,-14.44,-.13,-5.58,.06,21.88,88.20,13.47
1997,10,2,5,30,-14.62,-.13,-5.66,.10,21.87,87.60,13.47
1997,10,2,5,35,-14.63,-.02,-5.72,.10,21.92,86.80,13.47
1997,10,2,5,40,-14.36,.07,-5.59,.13,21.99,86.20,13.47
1997,10,2,5,45,-14.17,.19,-5.46,.15,21.94,86.20,13.48
1997,10,2,5,50,-14.05,.46,-5.39,.20,21.99,85.90,13.48
1997,10,2,5,55,-13.58,.53,-5.16,.43,21.99,86.00,13.48
1997,10,2,6,0,-13.56,.61,-5.18,.54,21.94,85.90,13.48
1997,10,2,6,5,-13.40,.56,-4.93,1.10,21.92,86.50,13.48
1997,10,2,6,10,-12.16,.68,-3.74,2.19,21.96,86.20,13.48
1997,10,2,6,15,-10.17,.72,-1.74,3.89,21.96,86.00,13.48
1997,10,2,6,20,-7.10,.97,1.21,6.39,22.02,85.60,13.48
1997,10,2,6,25,-2.62,2.22,4.88,10.54,22.09,85.20,13.48
1997,10,2,6,30,3.76,35.70,9.92,16.48,22.20,84.60,13.49
1997,10,2,6,35,11.71,71.50,15.55,24.08,22.42,83.70,13.49
1997,10,2,6,40,21.58,107.30,21.44,33.54,22.59,82.90,13.48
1997,10,2,6,45,32.03,139.20,26.73,44.12,22.78,82.40,13.48
1997,10,2,6,50,43.88,174.30,32.29,56.73,22.92,82.10,13.48
1997,10,2,6,55,57.15,208.60,38.14,71.20,23.04,81.60,13.48
1997,10,2,7,0,71.90,245.40,43.48,86.80,23.25,80.90,13.47
1997,10,2,7,5,87.60,282.20,48.73,102.10,23.46,80.20,13.47
1997,10,2,7,10,102.50,310.20,53.43,116.40,23.67,79.80,13.46
1997,10,2,7,15,119.30,341.00,58.07,132.70,23.81,78.20,13.46
1997,10,2,7,20,137.10,372.60,62.69,150.00,23.99,78.40,13.45
1997,10,2,7,25,154.50,400.80,66.73,166.80,24.23,76.20,13.44
1997,10,2,7,30,171.40,423.20,70.60,183.30,24.45,75.50,13.44
1997,10,2,7,35,189.20,446.40,74.30,200.70,24.62,74.50,13.43
1997,10,2,7,40,207.40,471.30,77.30,218.40,24.84,73.70,13.42
1997,10,2,7,45,224.40,490.60,79.90,234.80,25.04,73.00,13.42
1997,10,2,7,50,242.10,508.40,82.90,251.90,25.23,72.10,13.41
1997,10,2,7,55,260.00,526.50,85.30,269.10,25.39,72.10,13.40
1997,10,2,8,0,277.70,539.20,88.40,285.40,25.61,71.50,13.39
1997,10,2,8,5,297.70,555.20,91.20,303.30,25.78,71.70,13.39
1997,10,2,8,10,315.00,570.20,93.00,320.60,25.92,70.80,13.38
1997,10,2,8,15,331.50,582.80,95.70,338.30,25.99,70.60,13.37
1997,10,2,8,20,347.90,595.00,96.80,355.60,25.94,68.88,13.37
1997,10,2,8,25,362.90,602.30,97.90,371.40,25.76,69.71,13.36
1997,10,2,8,30,379.90,612.40,101.20,388.20,25.86,69.19,13.36
1997,10,2,8,35,396.60,621.40,102.70,404.90,25.65,67.91,13.35
1997,10,2,8,40,412.60,624.40,106.30,420.20,25.60,68.88,13.35
1997,10,2,8,45,429.40,631.40,110.90,435.80,25.84,69.21,13.35
1997,10,2,8,50,445.00,638.40,113.60,450.80,25.91,68.32,13.34
1997,10,2,8,55,461.80,645.50,116.20,466.40,25.96,68.40,13.34
1997,10,2,9,0,477.50,649.60,118.40,481.30,25.90,67.84,13.34
1997,10,2,9,5,495.60,659.40,121.90,498.00,26.12,69.05,13.33
1997,10,2,9,10,510.30,667.80,122.90,511.90,26.18,68.07,13.33
1997,10,2,9,15,524.40,671.90,126.90,525.00,26.44,67.91,13.32
1997,10,2,9,20,541.60,678.60,128.90,541.70,26.41,67.23,13.32
1997,10,2,9,25,556.50,684.90,130.40,555.70,26.43,67.57,13.31
1997,10,2,9,30,572.60,693.20,131.80,570.90,26.55,67.14,13.31
1997,10,2,9,35,586.70,695.90,134.90,583.60,26.66,67.87,13.31
1997,10,2,9,40,600.00,701.00,137.00,596.10,26.93,67.85,13.30
1997,10,2,9,45,612.20,702.00,138.60,608.00,26.93,68.43,13.28
1997,10,2,9,50,625.30,706.00,142.50,620.40,27.20,67.65,13.29
1997,10,2,9,55,637.80,708.00,143.30,632.30,27.08,67.88,13.29
1997,10,2,10,0,645.20,704.00,144.90,639.50,27.00,68.11,13.29
1997,10,2,10,5,657.70,710.00,145.20,650.70,27.02,68.05,13.28
1997,10,2,10,10,672.10,721.00,144.60,664.20,27.05,67.80,13.28
1997,10,2,10,15,683.00,722.00,147.10,674.50,27.00,68.26,13.28
1997,10,2,10,20,694.80,729.00,147.90,685.30,27.20,67.35,13.28
1997,10,2,10,25,708.00,737.00,146.30,697.10,27.30,66.89,13.27
1997,10,2,10,30,716.00,736.00,148.70,705.00,27.30,67.42,13.27
1997,10,2,10,35,724.00,737.00,150.50,712.00,27.47,66.49,13.27
1997,10,2,10,40,733.00,738.00,153.30,721.00,27.44,66.96,13.27